Regional Weather Roundup
Issued by NWS

Home | Current Version | Previous Version | Graphics & Text | Print | Product List | Glossary Off
Versions: 1 2 3 4 5 6 7 8 9 10 11 12 13 14 15 16 17 18 19 20 21 22 23 24 25 26 27 28 29 30 31 32 33 34 35 36 37 38 39 40 41 42 43 44 45 46 47 48 49 50

000
ASUS43 KTOP 230808
RWRKS

WEATHER ROUNDUP FOR KANSAS
NATIONAL WEATHER SERVICE GOODLAND KS
300 AM CDT THU OCT 23 2014

NOTE:  "FAIR" INDICATES FEW OR NO CLOUDS BELOW 12,000 FEET WITH NO
SIGNIFICANT WEATHER AND/OR OBSTRUCTIONS TO VISIBILITY.

KSZ001>006-013>018-027>032-041>047-230900-
NORTHWEST KANSAS

CITY           SKY/WX    TMP DP  RH WIND       PRES   REMARKS
GOODLAND       CLEAR     45  43  93 W5        30.12S
HAYS           CLOUDY    61  54  77 SW5       30.06S
HILL CITY      MOCLDY    55  53  93 W6        30.06S
RUSSELL        CLOUDY    61  58  90 S7        30.05S
$$

KSZ061>065-074>080-084>089-230900-
SOUTHWEST KANSAS

CITY           SKY/WX    TMP DP  RH WIND       PRES   REMARKS
DODGE CITY     MOCLDY    60  57  89 S7        30.07S
ELKHART          N/A     55  52  90 S5          N/A
GARDEN CITY    CLOUDY    61  58  90 S7        30.06S FOG
GREAT BEND     CLOUDY    61  55  82 S6        30.07S
LIBERAL        PTCLDY    61  55  82 SW8       30.08F
PRATT          CLOUDY    59  55  88 SW8       30.09R
$$

KSZ066>073-081>083-090>101-230900-
SOUTHEAST KANSAS

CITY           SKY/WX    TMP DP  RH WIND       PRES   REMARKS
CHANUTE        CLOUDY    63  57  81 S6        30.12S
COFFEYVILLE    LGT RAIN  62  57  83 SE6       30.11F
HUTCHINSON     CLOUDY    62  57  83 S8        30.08S
MEDICINE LODGE   N/A     59  57  93 SW3       30.07R
NEWTON         CLOUDY    61  54  77 SW12      30.09F
PARSONS        LGT RAIN  61  58  90 CALM      30.13F
WICHITA INTL   CLOUDY    62  57  83 S3        30.09R
WICHITA JABRA  CLOUDY    63  55  75 S8        30.09R
WICHITA MCCONL CLOUDY    62  60  94 S6        30.10R
WINFIELD       CLOUDY    61  60  97 SE6       30.11R
$$

KSZ007>012-019>026-033>040-048>060-102>105-230900-
NORTHEAST KANSAS

CITY           SKY/WX    TMP DP  RH WIND       PRES   REMARKS
CONCORDIA      CLOUDY    60  59  96 S6        30.05S
EMPORIA        LGT RAIN  62  60  93 S5        30.10R
LAWRENCE       RAIN      59  57  93 SE3       30.11R FOG
MANHATTAN      LGT RAIN  62  61  96 CALM      30.07S FOG
MARYSVILLE     CLOUDY    61  59  94 S7        30.04S
OLATHE IND     CLOUDY    59  52  77 S8        30.12R
OLATHE EXE     LGT RAIN  59  53  80 S6        30.11R
SALINA         CLOUDY    64  58  80 S6        30.07R
TOPEKA BILLARD RAIN      63  62  97 S8        30.10R FOG
TOPEKA FORBES  RAIN      62  60  93 S10       30.10R FOG
$$



USA.gov is the U.S. government's official web portal to all federal, state and local government web resources and services.